| time (UTC) | temp C | wind direction | speed KPH | gust KPH | rain 1hr cm | rain 24hr cm | rain mn cm | humidity % | barometer mb |
| 20260509043942 | 21 | 229 | 0.0 | 4.8 | 0.00 | 0.00 | 0.00 | 85 | 1010.0 |
| 20260509043438 | 21 | 180 | 1.6 | 4.8 | 0.00 | 0.00 | 0.00 | 84 | 1009.5 |
| 20260509042933 | 21 | 250 | 3.2 | 6.4 | 0.00 | 0.00 | 0.00 | 84 | 1009.5 |
| 20260509042431 | 21 | 174 | 3.2 | 8.0 | 0.00 | 0.00 | 0.00 | 84 | 1008.9 |
| 20260509041927 | 22 | 207 | 4.8 | 8.0 | 0.00 | 0.00 | 0.00 | 83 | 1009.1 |
| 20260509041424 | 22 | 233 | 3.2 | 9.7 | 0.00 | 0.00 | 0.00 | 82 | 1009.4 |
| 20260509040922 | 22 | 183 | 3.2 | 11.3 | 0.00 | 0.00 | 0.00 | 82 | 1009.4 |
| 20260509040420 | 22 | 193 | 1.6 | 8.0 | 0.00 | 0.00 | 0.00 | 81 | 1010.0 |
| 20260509035916 | 22 | 224 | 1.6 | 4.8 | 0.00 | 0.00 | 0.00 | 82 | 1010.2 |
| 20260509035413 | 22 | 315 | 0.0 | 6.4 | 0.00 | 0.00 | 0.00 | 82 | 1010.8 |
| 20260509034910 | 22 | 352 | 0.0 | 0.0 | 0.00 | 0.00 | 0.00 | 82 | 1010.5 |
| 20260509034408 | 22 | 230 | 0.0 | 3.2 | 0.00 | 0.00 | 0.00 | 82 | 1010.7 |
| 20260509033905 | 22 | 315 | 0.0 | 0.0 | 0.00 | 0.00 | 0.00 | 82 | 1010.9 |
| 20260509033402 | 22 | 309 | 0.0 | 1.6 | 0.00 | 0.00 | 0.00 | 82 | 1010.5 |
| 20260509032858 | 22 | 283 | 0.0 | 1.6 | 0.00 | 0.00 | 0.00 | 82 | 1010.5 |
| 20260509032355 | 22 | 242 | 0.0 | 1.6 | 0.00 | 0.00 | 0.00 | 82 | 1010.3 |
| 20260509031853 | 22 | 255 | 0.0 | 1.6 | 0.00 | 0.00 | 0.00 | 82 | 1010.0 |
| 20260509031350 | 22 | 221 | 1.6 | 3.2 | 0.00 | 0.00 | 0.00 | 82 | 1010.0 |
| 20260509030848 | 22 | 248 | 0.0 | 3.2 | 0.00 | 0.00 | 0.00 | 82 | 1010.0 |
| 20260509030346 | 22 | 239 | 1.6 | 3.2 | 0.00 | 0.00 | 0.00 | 82 | 1010.2 |
| 20260509025843 | 22 | 234 | 1.6 | 3.2 | 0.00 | 0.00 | 0.00 | 82 | 1010.0 |
| 20260509025338 | 22 | 205 | 3.2 | 6.4 | 0.00 | 0.00 | 0.00 | 82 | 1009.7 |
| 20260509024833 | 22 | 178 | 4.8 | 6.4 | 0.00 | 0.00 | 0.00 | 82 | 1009.7 |
| 20260509024330 | 22 | 217 | 0.0 | 4.8 | 0.00 | 0.00 | 0.00 | 82 | 1009.6 |
| 20260509023827 | 22 | 170 | 1.6 | 4.8 | 0.00 | 0.00 | 0.00 | 82 | 1009.6 |
| 20260509023324 | 22 | 193 | 0.0 | 4.8 | 0.00 | 0.00 | 0.00 | 82 | 1009.4 |
| 20260509022821 | 22 | 168 | 0.0 | 3.2 | 0.00 | 0.00 | 0.00 | 82 | 1009.1 |
| 20260509022318 | 22 | 138 | 3.2 | 8.0 | 0.00 | 0.00 | 0.00 | 82 | 1008.9 |
| 20260509021815 | 22 | 194 | 1.6 | 4.8 | 0.00 | 0.00 | 0.00 | 81 | 1008.9 |
| 20260509021312 | 22 | 211 | 3.2 | 6.4 | 0.00 | 0.00 | 0.00 | 81 | 1009.0 |
| 20260509020809 | 22 | 254 | 0.0 | 4.8 | 0.00 | 0.00 | 0.00 | 81 | 1008.8 |
| 20260509020308 | 22 | 198 | 0.0 | 6.4 | 0.00 | 0.00 | 0.00 | 81 | 1008.8 |
| 20260509015805 | 22 | 228 | 1.6 | 4.8 | 0.00 | 0.00 | 0.00 | 81 | 1008.9 |
| 20260509015306 | 22 | 87 | 1.6 | 4.8 | 0.00 | 0.00 | 0.00 | 80 | 1008.8 |
| 20260509014759 | 22 | 263 | 0.0 | 4.8 | 0.00 | 0.00 | 0.00 | 80 | 1008.9 |
| 20260509014256 | 22 | 204 | 1.6 | 4.8 | 0.00 | 0.00 | 0.00 | 80 | 1008.7 |
| 20260509013753 | 22 | 220 | 1.6 | 3.2 | 0.00 | 0.00 | 0.00 | 79 | 1008.7 |
| 20260509013248 | 22 | 217 | 1.6 | 4.8 | 0.00 | 0.00 | 0.00 | 79 | 1008.6 |
| 20260509012745 | 22 | 240 | 1.6 | 4.8 | 0.00 | 0.00 | 0.00 | 79 | 1008.7 |
| 20260509012242 | 22 | 224 | 1.6 | 3.2 | 0.00 | 0.00 | 0.00 | 79 | 1008.7 |
| 20260509011739 | 22 | 179 | 1.6 | 4.8 | 0.00 | 0.00 | 0.00 | 78 | 1008.6 |
| 20260509011237 | 22 | 191 | 1.6 | 4.8 | 0.00 | 0.00 | 0.00 | 78 | 1008.5 |
| 20260509010734 | 22 | 237 | 0.0 | 4.8 | 0.00 | 0.00 | 0.00 | 78 | 1008.6 |
| 20260509010231 | 22 | 228 | 1.6 | 6.4 | 0.00 | 0.00 | 0.00 | 77 | 1008.5 |
| 20260509005728 | 22 | 208 | 1.6 | 6.4 | 0.00 | 0.00 | 0.00 | 77 | 1008.5 |
| 20260509005225 | 22 | 179 | 3.2 | 9.7 | 0.00 | 0.00 | 0.00 | 77 | 1008.2 |
| 20260509004719 | 22 | 182 | 6.4 | 8.0 | 0.00 | 0.00 | 0.00 | 76 | 1008.4 |
| 20260509004217 | 22 | 154 | 4.8 | 8.0 | 0.00 | 0.00 | 0.00 | 76 | 1008.2 |
| 20260509003715 | 23 | 237 | 1.6 | 8.0 | 0.00 | 0.00 | 0.00 | 75 | 1007.9 |
| 20260509003213 | 23 | 316 | 3.2 | 6.4 | 0.00 | 0.00 | 0.00 | 75 | 1008.0 |
| 20260509002710 | 23 | 242 | 3.2 | 8.0 | 0.00 | 0.00 | 0.00 | 75 | 1008.1 |
| 20260509002208 | 23 | 230 | 4.8 | 8.0 | 0.00 | 0.00 | 0.00 | 74 | 1008.3 |
| 20260509001705 | 23 | 223 | 3.2 | 9.7 | 0.00 | 0.00 | 0.00 | 73 | 1008.0 |
| 20260509001200 | 23 | 257 | 1.6 | 11.3 | 0.00 | 0.00 | 0.00 | 72 | 1008.2 |
| 20260509000659 | 23 | 183 | 3.2 | 11.3 | 0.00 | 0.00 | 0.00 | 72 | 1008.3 |
| 20260509000156 | 23 | 208 | 4.8 | 6.4 | 0.00 | 0.00 | 0.00 | 72 | 1008.4 |
| 20260508235653 | 23 | 274 | 3.2 | 9.7 | 0.00 | 0.00 | 0.00 | 72 | 1008.4 |
| 20260508235149 | 23 | 217 | 4.8 | 14.5 | 0.00 | 0.00 | 0.00 | 71 | 1008.5 |
| 20260508234646 | 24 | 276 | 3.2 | 11.3 | 0.00 | 0.00 | 0.00 | 70 | 1008.3 |
| 20260508234142 | 25 | 197 | 4.8 | 8.0 | 0.00 | 0.00 | 0.00 | 68 | 1008.3 |
| 20260508233637 | 25 | 163 | 6.4 | 11.3 | 0.00 | 0.00 | 0.00 | 68 | 1008.5 |
| 20260508233134 | 25 | 212 | 4.8 | 9.7 | 0.00 | 0.00 | 0.00 | 68 | 1008.5 |
| 20260508232631 | 25 | 229 | 3.2 | 9.7 | 0.00 | 0.00 | 0.00 | 69 | 1008.7 |
| 20260508232128 | 24 | 242 | 3.2 | 8.0 | 0.00 | 0.00 | 0.00 | 70 | 1008.6 |
| 20260508231625 | 25 | 194 | 0.0 | 9.7 | 0.00 | 0.00 | 0.00 | 70 | 1008.6 |
| 20260508231122 | 25 | 209 | 4.8 | 11.3 | 0.00 | 0.00 | 0.00 | 69 | 1008.6 |
| 20260508230618 | 25 | 268 | 3.2 | 9.7 | 0.00 | 0.00 | 0.00 | 69 | 1008.8 |
| 20260508230115 | 25 | 223 | 1.6 | 8.0 | 0.00 | 0.00 | 0.00 | 69 | 1008.6 |
| 20260508225613 | 25 | 162 | 6.4 | 12.9 | 0.00 | 0.00 | 0.00 | 69 | 1008.6 |
| 20260508225109 | 25 | 211 | 3.2 | 9.7 | 0.00 | 0.00 | 0.00 | 69 | 1008.5 |
| 20260508224607 | 25 | 330 | 0.0 | 8.0 | 0.00 | 0.00 | 0.00 | 69 | 1008.8 |
| 20260508224104 | 25 | 257 | 3.2 | 8.0 | 0.00 | 0.00 | 0.00 | 68 | 1008.6 |
| 20260508223602 | 26 | 240 | 3.2 | 8.0 | 0.00 | 0.00 | 0.00 | 68 | 1008.7 |
| 20260508223058 | 26 | 208 | 8.0 | 14.5 | 0.00 | 0.00 | 0.00 | 66 | 1008.5 |
| 20260508222556 | 26 | 165 | 4.8 | 19.3 | 0.00 | 0.00 | 0.00 | 65 | 1008.6 |
| 20260508222053 | 27 | 209 | 6.4 | 9.7 | 0.00 | 0.00 | 0.00 | 64 | 1008.5 |
| 20260508221549 | 27 | 228 | 6.4 | 17.7 | 0.00 | 0.00 | 0.00 | 65 | 1008.3 |
| 20260508221045 | 27 | 226 | 4.8 | 12.9 | 0.00 | 0.00 | 0.00 | 63 | 1008.2 |
| 20260508220542 | 27 | 189 | 6.4 | 12.9 | 0.00 | 0.00 | 0.00 | 62 | 1008.2 |
| 20260508220038 | 28 | 200 | 6.4 | 12.9 | 0.00 | 0.00 | 0.00 | 61 | 1008.1 |
| 20260508215535 | 28 | 199 | 6.4 | 14.5 | 0.00 | 0.00 | 0.00 | 61 | 1008.3 |
| 20260508215032 | 27 | 203 | 4.8 | 16.1 | 0.00 | 0.00 | 0.00 | 61 | 1008.3 |
| 20260508214530 | 28 | 213 | 3.2 | 8.0 | 0.00 | 0.00 | 0.00 | 60 | 1008.2 |
| 20260508214025 | 27 | 227 | 4.8 | 6.4 | 0.00 | 0.00 | 0.00 | 62 | 1008.1 |
| 20260508213523 | 27 | 229 | 3.2 | 12.9 | 0.00 | 0.00 | 0.00 | 64 | 1008.4 |
| 20260508213019 | 26 | 309 | 4.8 | 9.7 | 0.00 | 0.00 | 0.00 | 63 | 1008.6 |
| 20260508212515 | 27 | 251 | 4.8 | 6.4 | 0.00 | 0.00 | 0.00 | 64 | 1008.3 |
| 20260508212012 | 26 | 310 | 4.8 | 12.9 | 0.00 | 0.00 | 0.00 | 63 | 1008.9 |
| 20260508211508 | 26 | 161 | 0.0 | 9.7 | 0.00 | 0.00 | 0.00 | 65 | 1009.0 |
| 20260508211004 | 25 | 218 | 3.2 | 9.7 | 0.00 | 0.00 | 0.00 | 67 | 1009.1 |
| 20260508210501 | 24 | 103 | 4.8 | 14.5 | 0.00 | 0.00 | 0.00 | 69 | 1009.6 |
| 20260508205957 | 24 | 240 | 0.0 | 9.7 | 0.00 | 0.00 | 0.00 | 68 | 1009.7 |
| 20260508205455 | 24 | 236 | 3.2 | 6.4 | 0.00 | 0.00 | 0.00 | 69 | 1009.8 |
| 20260508204951 | 24 | 202 | 4.8 | 6.4 | 0.00 | 0.00 | 0.00 | 68 | 1010.2 |
| 20260508204448 | 25 | 211 | 0.0 | 8.0 | 0.00 | 0.00 | 0.00 | 67 | 1010.2 |
| 20260508203943 | 25 | 204 | 4.8 | 11.3 | 0.00 | 0.00 | 0.00 | 66 | 1010.5 |
| 20260508203440 | 25 | 229 | 3.2 | 9.7 | 0.00 | 0.00 | 0.00 | 67 | 1010.2 |
| 20260508202935 | 25 | 212 | 3.2 | 8.0 | 0.00 | 0.00 | 0.00 | 66 | 1010.5 |
| 20260508202433 | 25 | 240 | 0.0 | 9.7 | 0.00 | 0.00 | 0.00 | 65 | 1010.5 |
| 20260508201930 | 25 | 237 | 3.2 | 9.7 | 0.00 | 0.00 | 0.00 | 65 | 1010.2 |
| 20260508201427 | 26 | 232 | 3.2 | 6.4 | 0.00 | 0.00 | 0.00 | 63 | 1010.1 |
| 20260508200923 | 26 | 185 | 4.8 | 8.0 | 0.00 | 0.00 | 0.00 | 62 | 1010.4 |
| 20260508200420 | 26 | 193 | 4.8 | 12.9 | 0.00 | 0.00 | 0.00 | 62 | 1010.4 |
| 20260508195915 | 27 | 250 | 3.2 | 8.0 | 0.00 | 0.00 | 0.00 | 63 | 1010.3 |
| 20260508195413 | 26 | 211 | 4.8 | 11.3 | 0.00 | 0.00 | 0.00 | 62 | 1010.4 |
| 20260508194909 | 26 | 159 | 0.0 | 11.3 | 0.00 | 0.00 | 0.00 | 62 | 1010.5 |
| 20260508194406 | 26 | 214 | 1.6 | 11.3 | 0.00 | 0.00 | 0.00 | 63 | 1010.6 |
| 20260508193903 | 26 | 355 | 3.2 | 6.4 | 0.00 | 0.00 | 0.00 | 63 | 1010.4 |
| 20260508193400 | 26 | 119 | 3.2 | 11.3 | 0.00 | 0.00 | 0.00 | 62 | 1010.7 |
| 20260508192856 | 26 | 244 | 3.2 | 9.7 | 0.00 | 0.00 | 0.00 | 63 | 1010.6 |
| 20260508192353 | 26 | 177 | 6.4 | 11.3 | 0.00 | 0.00 | 0.00 | 62 | 1010.8 |
| 20260508191850 | 26 | 258 | 4.8 | 14.5 | 0.00 | 0.00 | 0.00 | 62 | 1010.7 |
| 20260508191348 | 26 | 314 | 1.6 | 8.0 | 0.00 | 0.00 | 0.00 | 63 | 1010.9 |
| 20260508190844 | 26 | 121 | 1.6 | 11.3 | 0.00 | 0.00 | 0.00 | 62 | 1010.9 |
| 20260508190341 | 26 | 213 | 4.8 | 11.3 | 0.00 | 0.00 | 0.00 | 60 | 1011.0 |
| 20260508185837 | 26 | 260 | 3.2 | 12.9 | 0.00 | 0.00 | 0.00 | 62 | 1010.7 |
| 20260508185335 | 26 | 204 | 1.6 | 11.3 | 0.00 | 0.00 | 0.00 | 61 | 1011.1 |
| 20260508184832 | 26 | 47 | 4.8 | 12.9 | 0.00 | 0.00 | 0.00 | 60 | 1010.9 |
| 20260508184329 | 26 | 178 | 4.8 | 16.1 | 0.00 | 0.00 | 0.00 | 61 | 1011.0 |
| 20260508183826 | 26 | 210 | 4.8 | 8.0 | 0.00 | 0.00 | 0.00 | 60 | 1011.1 |
| 20260508183323 | 26 | 146 | 0.0 | 12.9 | 0.00 | 0.00 | 0.00 | 59 | 1011.5 |
| 20260508182818 | 26 | 265 | 6.4 | 8.0 | 0.00 | 0.00 | 0.00 | 61 | 1011.3 |
| 20260508182315 | 26 | 225 | 3.2 | 8.0 | 0.00 | 0.00 | 0.00 | 61 | 1011.2 |
| 20260508181811 | 25 | 148 | 4.8 | 6.4 | 0.00 | 0.00 | 0.00 | 61 | 1011.3 |
| 20260508181308 | 25 | 117 | 1.6 | 8.0 | 0.00 | 0.00 | 0.00 | 61 | 1011.6 |
| 20260508180805 | 25 | 248 | 3.2 | 8.0 | 0.00 | 0.00 | 0.00 | 61 | 1011.6 |
| 20260508180302 | 25 | 240 | 4.8 | 17.7 | 0.00 | 0.00 | 0.00 | 62 | 1011.7 |
| 20260508175758 | 25 | 247 | 3.2 | 11.3 | 0.00 | 0.00 | 0.00 | 62 | 1011.7 |
| 20260508175255 | 25 | 234 | 0.0 | 12.9 | 0.00 | 0.00 | 0.00 | 62 | 1011.9 |
| 20260508174753 | 25 | 191 | 3.2 | 6.4 | 0.00 | 0.00 | 0.00 | 60 | 1011.9 |
| 20260508174250 | 25 | 234 | 4.8 | 8.0 | 0.00 | 0.00 | 0.00 | 65 | 1012.0 |
| 20260508173746 | 25 | 321 | 3.2 | 8.0 | 0.00 | 0.00 | 0.00 | 64 | 1012.0 |
| 20260508173242 | 25 | 1 | 1.6 | 9.7 | 0.00 | 0.00 | 0.00 | 62 | 1011.9 |
| 20260508172739 | 25 | 45 | 4.8 | 11.3 | 0.00 | 0.00 | 0.00 | 64 | 1012.3 |
| 20260508172236 | 24 | 121 | 1.6 | 11.3 | 0.00 | 0.00 | 0.00 | 64 | 1012.3 |
| 20260508171733 | 23 | 328 | 4.8 | 6.4 | 0.00 | 0.00 | 0.00 | 64 | 1012.7 |
| 20260508171229 | 23 | 57 | 0.0 | 6.4 | 0.00 | 0.00 | 0.00 | 64 | 1012.9 |
| 20260508170726 | 23 | 276 | 1.6 | 4.8 | 0.00 | 0.00 | 0.00 | 67 | 1012.7 |
| 20260508170224 | 22 | 293 | 0.0 | 8.0 | 0.00 | 0.00 | 0.00 | 67 | 1012.8 |
| 20260508165720 | 23 | 180 | 8.0 | 9.7 | 0.00 | 0.00 | 0.00 | 65 | 1012.9 |
| 20260508165218 | 22 | 353 | 1.6 | 6.4 | 0.00 | 0.00 | 0.00 | 66 | 1013.2 |
| 20260508164714 | 22 | 252 | 3.2 | 11.3 | 0.00 | 0.00 | 0.00 | 69 | 1013.2 |
| 20260508164211 | 23 | 162 | 4.8 | 8.0 | 0.00 | 0.00 | 0.00 | 66 | 1013.5 |
| 20260508163709 | 23 | 252 | 1.6 | 6.4 | 0.00 | 0.00 | 0.00 | 65 | 1013.3 |
| 20260508163206 | 22 | 326 | 4.8 | 11.3 | 0.00 | 0.00 | 0.00 | 66 | 1013.6 |
| 20260508162701 | 22 | 209 | 1.6 | 6.4 | 0.00 | 0.00 | 0.00 | 68 | 1013.7 |
| 20260508162159 | 22 | 204 | 3.2 | 6.4 | 0.00 | 0.00 | 0.00 | 68 | 1013.5 |
| 20260508161655 | 22 | 255 | 3.2 | 8.0 | 0.00 | 0.00 | 0.00 | 67 | 1013.8 |
| 20260508161153 | 22 | 210 | 4.8 | 11.3 | 0.00 | 0.00 | 0.00 | 67 | 1013.7 |
| 20260508160651 | 22 | 121 | 4.8 | 12.9 | 0.00 | 0.00 | 0.00 | 67 | 1013.8 |
| 20260508160149 | 21 | 212 | 4.8 | 9.7 | 0.00 | 0.00 | 0.00 | 67 | 1013.7 |
| 20260508155645 | 22 | 222 | 3.2 | 8.0 | 0.00 | 0.00 | 0.00 | 67 | 1014.0 |
| 20260508155142 | 22 | 67 | 1.6 | 8.0 | 0.00 | 0.00 | 0.00 | 65 | 1014.1 |
| 20260508154639 | 22 | 238 | 1.6 | 8.0 | 0.00 | 0.00 | 0.00 | 65 | 1013.9 |
| 20260508154136 | 22 | 170 | 0.0 | 12.9 | 0.00 | 0.00 | 0.00 | 67 | 1013.9 |
| 20260508153633 | 22 | 243 | 1.6 | 14.5 | 0.00 | 0.00 | 0.00 | 67 | 1014.1 |
| 20260508153130 | 22 | 202 | 1.6 | 8.0 | 0.00 | 0.00 | 0.00 | 67 | 1014.0 |
| 20260508152626 | 21 | 189 | 4.8 | 8.0 | 0.00 | 0.00 | 0.00 | 69 | 1014.2 |
| 20260508152121 | 21 | 202 | 0.0 | 6.4 | 0.00 | 0.00 | 0.00 | 69 | 1014.2 |
| 20260508151619 | 21 | 219 | 3.2 | 11.3 | 0.00 | 0.00 | 0.00 | 69 | 1014.2 |
| 20260508151115 | 21 | 217 | 1.6 | 8.0 | 0.00 | 0.00 | 0.00 | 69 | 1014.3 |
| 20260508150613 | 21 | 226 | 3.2 | 8.0 | 0.00 | 0.00 | 0.00 | 69 | 1014.1 |
| 20260508150109 | 21 | 230 | 3.2 | 6.4 | 0.00 | 0.00 | 0.00 | 70 | 1014.2 |
| 20260508145605 | 21 | 239 | 1.6 | 9.7 | 0.00 | 0.00 | 0.00 | 73 | 1014.0 |
| 20260508145102 | 20 | 230 | 0.0 | 8.0 | 0.05 | 0.00 | 0.00 | 75 | 1014.1 |
| 20260508144600 | 20 | 205 | 4.8 | 8.0 | 0.05 | 0.00 | 0.00 | 76 | 1014.1 |
| 20260508144056 | 20 | 147 | 4.8 | 12.9 | 0.00 | 0.00 | 0.00 | 71 | 1013.8 |
| 20260508143554 | 21 | 228 | 4.8 | 9.7 | 0.00 | 0.00 | 0.00 | 68 | 1014.4 |
| 20260508143051 | 21 | 185 | 3.2 | 11.3 | 0.00 | 0.00 | 0.00 | 67 | 1014.2 |
| 20260508142547 | 22 | 243 | 4.8 | 8.0 | 0.00 | 0.00 | 0.00 | 67 | 1014.4 |
| 20260508142044 | 21 | 18 | 3.2 | 6.4 | 0.00 | 0.00 | 0.00 | 70 | 1014.2 |
| 20260508141540 | 20 | 142 | 6.4 | 8.0 | 0.00 | 0.00 | 0.00 | 71 | 1014.4 |
| 20260508141038 | 19 | 195 | 1.6 | 6.4 | 0.00 | 0.00 | 0.00 | 74 | 1014.2 |
| 20260508140535 | 19 | 303 | 3.2 | 8.0 | 0.00 | 0.00 | 0.00 | 75 | 1014.2 |
| 20260508140032 | 19 | 330 | 3.2 | 8.0 | 0.00 | 0.00 | 0.00 | 75 | 1014.3 |
| 20260508135527 | 19 | 225 | 1.6 | 8.0 | 0.00 | 0.00 | 0.00 | 76 | 1014.6 |
| 20260508135024 | 19 | 180 | 4.8 | 8.0 | 0.00 | 0.00 | 0.00 | 76 | 1014.5 |
| 20260508134521 | 19 | 98 | 0.0 | 3.2 | 0.00 | 0.00 | 0.00 | 76 | 1014.2 |
| 20260508134018 | 18 | 221 | 3.2 | 6.4 | 0.00 | 0.00 | 0.00 | 77 | 1014.3 |
| 20260508133514 | 18 | 274 | 1.6 | 8.0 | 0.00 | 0.00 | 0.00 | 80 | 1014.5 |
| 20260508133012 | 18 | 184 | 3.2 | 8.0 | 0.00 | 0.00 | 0.00 | 82 | 1014.7 |
| 20260508132510 | 17 | 299 | 0.0 | 4.8 | 0.00 | 0.00 | 0.00 | 85 | 1014.6 |
| 20260508132006 | 17 | 321 | 0.0 | 4.8 | 0.00 | 0.00 | 0.00 | 85 | 1014.3 |
| 20260508131501 | 17 | 341 | 0.0 | 4.8 | 0.00 | 0.00 | 0.00 | 86 | 1014.5 |
| 20260508130958 | 17 | 50 | 0.0 | 3.2 | 0.00 | 0.00 | 0.00 | 88 | 1014.5 |
| 20260508130455 | 17 | 124 | 0.0 | 1.6 | 0.00 | 0.00 | 0.00 | 88 | 1014.6 |
| 20260508125950 | 17 | 233 | 0.0 | 3.2 | 0.00 | 0.00 | 0.00 | 88 | 1015.0 |
| 20260508125447 | 16 | 294 | 1.6 | 4.8 | 0.00 | 0.00 | 0.00 | 88 | 1014.4 |
| 20260508124945 | 16 | 303 | 0.0 | 4.8 | 0.00 | 0.00 | 0.00 | 88 | 1014.3 |
| 20260508124443 | 16 | 269 | 0.0 | 3.2 | 0.00 | 0.00 | 0.00 | 88 | 1014.7 |
| 20260508123940 | 16 | 259 | 3.2 | 3.2 | 0.00 | 0.00 | 0.00 | 88 | 1014.9 |
| 20260508123439 | 16 | 230 | 0.0 | 3.2 | 0.00 | 0.00 | 0.00 | 88 | 1014.5 |
| 20260508122934 | 16 | 242 | 0.0 | 1.6 | 0.00 | 0.00 | 0.00 | 88 | 1014.6 |
| 20260508122432 | 16 | 124 | 0.0 | 3.2 | 0.00 | 0.00 | 0.00 | 88 | 1014.8 |
| 20260508121929 | 16 | 224 | 0.0 | 3.2 | 0.00 | 0.00 | 0.00 | 89 | 1014.7 |
| 20260508121427 | 16 | 137 | 0.0 | 4.8 | 0.00 | 0.00 | 0.00 | 89 | 1014.6 |
| 20260508120924 | 16 | 154 | 0.0 | 4.8 | 0.00 | 0.00 | 0.00 | 89 | 1014.7 |
| 20260508120422 | 16 | 233 | 0.0 | 3.2 | 0.00 | 0.00 | 0.00 | 89 | 1014.9 |
| 20260508115919 | 16 | 313 | 0.0 | 3.2 | 0.00 | 0.00 | 0.00 | 88 | 1014.8 |
| 20260508115418 | 16 | 309 | 0.0 | 8.0 | 0.00 | 0.00 | 0.00 | 88 | 1014.7 |
| 20260508114913 | 16 | 177 | 4.8 | 6.4 | 0.00 | 0.00 | 0.00 | 87 | 1014.6 |
| 20260508114410 | 16 | 223 | 0.0 | 4.8 | 0.00 | 0.00 | 0.00 | 87 | 1014.8 |
| 20260508113907 | 16 | 236 | 3.2 | 3.2 | 0.00 | 0.00 | 0.00 | 88 | 1015.2 |
| 20260508113405 | 16 | 272 | 0.0 | 3.2 | 0.00 | 0.00 | 0.00 | 87 | 1014.3 |
| 20260508112902 | 16 | 286 | 1.6 | 4.8 | 0.00 | 0.00 | 0.00 | 87 | 1014.5 |
| 20260508112358 | 16 | 324 | 0.0 | 4.8 | 0.00 | 0.00 | 0.00 | 87 | 1014.4 |
| 20260508111855 | 16 | 320 | 0.0 | 3.2 | 0.00 | 0.00 | 0.00 | 87 | 1014.5 |
| 20260508111352 | 16 | 67 | 0.0 | 3.2 | 0.00 | 0.00 | 0.00 | 87 | 1014.5 |
| 20260508110849 | 16 | 98 | 0.0 | 1.6 | 0.00 | 0.00 | 0.00 | 87 | 1015.1 |
| 20260508110347 | 16 | 217 | 0.0 | 3.2 | 0.00 | 0.00 | 0.00 | 87 | 1015.3 |
| 20260508105846 | 16 | 229 | 1.6 | 3.2 | 0.00 | 0.00 | 0.00 | 87 | 1014.8 |
| 20260508105343 | 16 | 199 | 0.0 | 4.8 | 0.00 | 0.00 | 0.00 | 87 | 1014.6 |
| 20260508104840 | 16 | 72 | 3.2 | 4.8 | 0.00 | 0.00 | 0.00 | 88 | 1015.3 |
| 20260508104337 | 16 | 213 | 4.8 | 4.8 | 0.00 | 0.00 | 0.00 | 90 | 1015.2 |
| 20260508103835 | 16 | 288 | 0.0 | 3.2 | 0.00 | 0.00 | 0.00 | 90 | 1014.0 |
| 20260508103331 | 16 | 218 | 0.0 | 3.2 | 0.00 | 0.00 | 0.00 | 90 | 1014.1 |
| 20260508102829 | 16 | 265 | 1.6 | 3.2 | 0.00 | 0.00 | 0.00 | 90 | 1014.3 |
| 20260508102327 | 16 | 291 | 0.0 | 3.2 | 0.00 | 0.00 | 0.00 | 89 | 1013.8 |
| 20260508101824 | 16 | 244 | 0.0 | 3.2 | 0.00 | 0.00 | 0.00 | 89 | 1013.8 |
| 20260508101321 | 16 | 191 | 3.2 | 4.8 | 0.00 | 0.00 | 0.00 | 89 | 1013.6 |
| 20260508100819 | 16 | 201 | 1.6 | 4.8 | 0.00 | 0.00 | 0.00 | 88 | 1013.6 |
| 20260508100317 | 16 | 250 | 0.0 | 3.2 | 0.00 | 0.00 | 0.00 | 88 | 1013.6 |
| 20260508095812 | 16 | 173 | 0.0 | 3.2 | 0.00 | 0.00 | 0.00 | 88 | 1013.5 |
| 20260508095311 | 16 | 247 | 1.6 | 4.8 | 0.00 | 0.00 | 0.00 | 88 | 1013.7 |
| 20260508094807 | 16 | 297 | 0.0 | 3.2 | 0.00 | 0.00 | 0.00 | 87 | 1013.7 |
| 20260508094304 | 16 | 4 | 0.0 | 3.2 | 0.00 | 0.00 | 0.00 | 87 | 1013.8 |
| 20260508093801 | 16 | 239 | 1.6 | 3.2 | 0.00 | 0.00 | 0.00 | 88 | 1014.3 |
| 20260508093259 | 16 | 242 | 0.0 | 3.2 | 0.00 | 0.00 | 0.00 | 89 | 1014.0 |
| 20260508092755 | 16 | 326 | 0.0 | 1.6 | 0.00 | 0.00 | 0.00 | 89 | 1013.9 |
| 20260508092254 | 16 | 284 | 0.0 | 1.6 | 0.00 | 0.00 | 0.00 | 89 | 1013.5 |
| 20260508091751 | 16 | 77 | 0.0 | 1.6 | 0.00 | 0.00 | 0.00 | 89 | 1013.9 |
| 20260508091248 | 16 | 269 | 0.0 | 0.0 | 0.00 | 0.00 | 0.00 | 88 | 1014.0 |
| 20260508090746 | 16 | 240 | 0.0 | 1.6 | 0.00 | 0.00 | 0.00 | 88 | 1014.1 |
| 20260508090243 | 16 | 224 | 0.0 | 4.8 | 0.00 | 0.00 | 0.00 | 88 | 1014.5 |
| 20260508085739 | 16 | 279 | 1.6 | 3.2 | 0.00 | 0.00 | 0.00 | 87 | 1014.4 |
| 20260508085236 | 16 | 261 | 1.6 | 3.2 | 0.00 | 0.00 | 0.00 | 87 | 1014.0 |
| 20260508084732 | 16 | 257 | 0.0 | 4.8 | 0.00 | 0.00 | 0.00 | 88 | 1013.6 |
| 20260508084230 | 16 | 299 | 1.6 | 3.2 | 0.00 | 0.00 | 0.00 | 88 | 1013.9 |
| 20260508083727 | 16 | 347 | 1.6 | 4.8 | 0.00 | 0.00 | 0.00 | 87 | 1014.1 |
| 20260508083225 | 16 | 293 | 0.0 | 3.2 | 0.00 | 0.00 | 0.00 | 86 | 1014.2 |
| 20260508082719 | 16 | 230 | 0.0 | 3.2 | 0.00 | 0.00 | 0.00 | 86 | 1014.4 |
| 20260508082218 | 16 | 129 | 0.0 | 3.2 | 0.00 | 0.00 | 0.00 | 86 | 1014.6 |
| 20260508081715 | 16 | 143 | 0.0 | 4.8 | 0.00 | 0.00 | 0.00 | 86 | 1014.6 |
| 20260508081211 | 16 | 333 | 0.0 | 4.8 | 0.00 | 0.00 | 0.00 | 86 | 1014.8 |
| 20260508080708 | 16 | 0 | 0.0 | 1.6 | 0.00 | 0.00 | 0.00 | 86 | 1015.2 |
| 20260508080206 | 16 | 257 | 0.0 | 3.2 | 0.00 | 0.00 | 0.00 | 87 | 1015.7 |
| 20260508075702 | 16 | 234 | 0.0 | 3.2 | 0.00 | 0.00 | 0.00 | 87 | 1015.8 |
| 20260508075200 | 16 | 242 | 0.0 | 3.2 | 0.00 | 0.00 | 0.00 | 86 | 1015.3 |
| 20260508074657 | 16 | 241 | 1.6 | 3.2 | 0.00 | 0.00 | 0.00 | 86 | 1015.3 |
| 20260508074154 | 16 | 260 | 1.6 | 1.6 | 0.00 | 0.00 | 0.00 | 86 | 1014.9 |
| 20260508073651 | 16 | 230 | 0.0 | 0.0 | 0.00 | 0.00 | 0.00 | 86 | 1014.9 |
| 20260508073149 | 16 | 230 | 0.0 | 1.6 | 0.00 | 0.00 | 0.00 | 86 | 1014.8 |
| 20260508072644 | 16 | 343 | 0.0 | 1.6 | 0.00 | 0.00 | 0.00 | 86 | 1015.0 |
| 20260508072142 | 16 | 296 | 0.0 | 1.6 | 0.00 | 0.00 | 0.00 | 86 | 1014.9 |
| 20260508071639 | 16 | 154 | 0.0 | 1.6 | 0.00 | 0.00 | 0.00 | 86 | 1015.0 |
| 20260508071138 | 16 | 230 | 0.0 | 1.6 | 0.00 | 0.00 | 0.00 | 87 | 1015.0 |
| 20260508070635 | 16 | 289 | 0.0 | 3.2 | 0.00 | 0.00 | 0.00 | 86 | 1015.1 |
| 20260508070133 | 16 | 76 | 0.0 | 0.0 | 0.00 | 0.00 | 0.00 | 86 | 1014.9 |
| 20260508065630 | 16 | 224 | 0.0 | 1.6 | 0.00 | 0.00 | 0.00 | 86 | 1015.2 |
| 20260508065128 | 16 | 284 | 0.0 | 1.6 | 0.00 | 0.00 | 0.00 | 86 | 1015.3 |
| 20260508064625 | 16 | 236 | 0.0 | 3.2 | 0.00 | 0.00 | 0.00 | 85 | 1015.7 |
| 20260508064123 | 16 | 239 | 0.0 | 1.6 | 0.00 | 0.00 | 0.00 | 85 | 1015.6 |
| 20260508063620 | 16 | 242 | 0.0 | 1.6 | 0.00 | 0.00 | 0.00 | 84 | 1015.7 |
| 20260508062616 | 16 | 212 | 0.0 | 1.6 | 0.00 | 0.00 | 0.00 | 84 | 1015.5 |
| 20260508062112 | 16 | 202 | 0.0 | 1.6 | 0.00 | 0.00 | 0.00 | 83 | 1015.7 |
| 20260508061609 | 16 | 213 | 0.0 | 1.6 | 0.00 | 0.00 | 0.00 | 83 | 1015.6 |
| 20260508061107 | 16 | 326 | 0.0 | 1.6 | 0.00 | 0.00 | 0.00 | 83 | 1015.5 |
| 20260508060603 | 16 | 38 | 0.0 | 1.6 | 0.00 | 0.00 | 0.00 | 83 | 1015.3 |
| 20260508060101 | 16 | 217 | 0.0 | 1.6 | 0.00 | 0.00 | 0.00 | 83 | 1015.8 |
| 20260508055556 | 16 | 242 | 0.0 | 1.6 | 0.00 | 0.00 | 0.00 | 83 | 1015.7 |
| 20260508055053 | 16 | 329 | 0.0 | 1.6 | 0.00 | 0.00 | 0.00 | 82 | 1015.7 |
| 20260508054550 | 16 | 242 | 0.0 | 0.0 | 0.00 | 0.00 | 0.00 | 83 | 1015.6 |
| 20260508054047 | 16 | 312 | 0.0 | 1.6 | 0.00 | 0.00 | 0.00 | 83 | 1015.7 |
| 20260508053543 | 16 | 230 | 0.0 | 0.0 | 0.00 | 0.00 | 0.00 | 83 | 1015.9 |
| 20260508053042 | 16 | 229 | 0.0 | 0.0 | 0.00 | 0.00 | 0.00 | 83 | 1015.8 |
| 20260508052539 | 16 | 195 | 0.0 | 1.6 | 0.00 | 0.00 | 0.00 | 82 | 1015.8 |
| 20260508052036 | 16 | 322 | 0.0 | 1.6 | 0.00 | 0.00 | 0.00 | 82 | 1015.8 |
| 20260508051532 | 16 | 205 | 0.0 | 1.6 | 0.00 | 0.00 | 0.00 | 82 | 1015.8 |
| 20260508051027 | 16 | 142 | 0.0 | 0.0 | 0.00 | 0.00 | 0.00 | 82 | 1015.7 |
| 20260508050524 | 16 | 0 | 0.0 | 1.6 | 0.00 | 0.00 | 0.00 | 82 | 1015.6 |
| 20260508050021 | 16 | 230 | 0.0 | 0.0 | 0.00 | 0.00 | 0.00 | 82 | 1015.8 |
| 20260508045517 | 16 | 273 | 0.0 | 1.6 | 0.00 | 0.00 | 0.00 | 82 | 1015.7 |
| 20260508045015 | 16 | 205 | 0.0 | 1.6 | 0.00 | 0.00 | 0.00 | 82 | 1015.6 |
| 20260508044513 | 16 | 205 | 0.0 | 1.6 | 0.00 | 0.00 | 0.00 | 82 | 1015.9 |